Regional Weather Roundup
Issued by NWS

Home | Current Version | Previous Version | Text Only | Print | Product List | Glossary Off
Versions: 1 2 3 4 5 6 7 8 9 10 11 12 13 14 15 16 17 18 19 20 21 22 23 24 25 26 27 28 29 30 31 32 33 34 35 36 37 38 39 40 41 42 43 44 45 46 47 48 49 50

673
ASUS45 KTFX 031010
RWRMT
MONTANA REGIONAL WEATHER ROUNDUP
NATIONAL WEATHER SERVICE GREAT FALLS MT
400 AM MDT TUE MAY 03 2016

NOTE: "FAIR" INDICATES FEW OR NO CLOUDS BELOW 12000 FEET WITH NO
SIGNIFICANT WEATHER AND/OR OBSTRUCTIONS TO VISIBILITY.

MTZ001>007-043-031100-
WEST OF THE DIVIDE

CITY           SKY/WX    TMP DP  RH WIND       PRES   REMARKS
KALISPELL      CLEAR     40  39  97 CALM      30.10S
MISSOULA       CLEAR     47  38  71 CALM      30.15R
BUTTE          CLEAR     34  26  72 SE7       30.21S WCI  28
MULLAN PASS    CLEAR     54  30  40 CALM      30.20S
$$

MTZ008-052>055-031100-
SOUTHWEST MONTANA

CITY           SKY/WX    TMP DP  RH WIND       PRES   REMARKS
BOZEMAN        CLEAR     39  30  70 CALM      30.18R
DILLON         CLEAR     42  28  57 S13       30.19R
ENNIS          CLEAR     37  23  56 SE5       30.26R
$$

MTZ009-010-012-014-046-048-049-054-031100-
EAST SLOPES AND CENTRAL MONTANA

CITY           SKY/WX    TMP DP  RH WIND       PRES   REMARKS
CUT BANK       CLEAR     41  33  73 W3        30.09S
GREAT FALLS    CLEAR     41  34  76 SW8       30.10S
MALMSTROM AFB  CLEAR     43  34  72 SW2       30.11R
HELENA         CLEAR     44  28  53 CALM      30.14S
$$

MTZ011-013-016-021-045-047-050-051-031100-
NORTH CENTRAL MONTANA

CITY           SKY/WX    TMP DP  RH WIND       PRES   REMARKS
HAVRE          CLEAR     44  39  82 SW7       30.08R
LEWISTOWN      CLEAR     41  31  67 SE7       30.13S
N BAR RANCH      N/A     39  32  75 W5        30.16S
$$

MTZ017>020-022>027-061-062-031100-
NORTHEAST MONTANA

CITY           SKY/WX    TMP DP  RH WIND       PRES   REMARKS
GLASGOW        CLEAR     46  37  71 NW6       30.04S
JORDAN           N/A     45  41  86 W9        30.06R
SIDNEY         CLEAR     39  32  75 CALM      30.03S
WOLF POINT     CLEAR     41  37  86 W5        30.04R
$$

MTZ028>42-056>058-031100-
SOUTHCENTRAL AND SOUTHEAST MONTANA

CITY           SKY/WX    TMP DP  RH WIND       PRES   REMARKS
BAKER          CLOUDY    41  33  73 CALM      30.06R
BILLINGS       CLEAR     47  36  65 SW15      30.13R
LIVINGSTON     CLEAR     37  29  72 CALM      30.18S
MILES CITY     CLEAR     49  41  74 W13       30.06R
$$

REGIONAL REPORTS...DAKOTAS

CITY           SKY/WX    TMP DP  RH WIND       PRES   REMARKS
WILLISTON      CLEAR     44  32  62 CALM      30.02R
MINOT          CLEAR     54  34  46 SW12      29.95S
DICKINSON      CLOUDY    39  31  72 SW8       30.02S
BEACH            N/A     37  32  81 CALM      30.07S
CROSBY           N/A     41  36  81 SW6       30.02S
TIOGA            N/A     37  37 100 W8        30.06R WCI  31
WATFORD CITY     N/A     41  36  81 SW6       30.02S
BISMARCK       PTCLDY    41  39  93 W3        30.00F
GRAND FORKS    CLOUDY    49  37  63 W10       29.88F
FARGO          CLOUDY    47  36  65 W9        29.94S
BUFFALO SD       N/A     41  32  70 W6        30.00R
RAPID CITY     CLEAR     42  34  73 NW10      30.07R
$$

REGIONAL REPORTS...WYOMING/IDAHO/WASHINGTON

CITY           SKY/WX    TMP DP  RH WIND       PRES   REMARKS
GILLETTE       CLEAR     42  36  79 W9        30.12S
SHERIDAN       CLEAR     41  32  70 S3        30.13S
BUFFALO WY       N/A    N/A N/A N/A MISG      30.17R
CODY           CLEAR     46  28  49 SW6       30.18S
YELLOWSTONE LA   N/A     27  22  81 CALM      30.33R
IDAHO FALLS    CLEAR     34  26  72 CALM      30.22R
SALMON         CLEAR     37  28  70 CALM      30.17R
BOISE          CLEAR     54  32  43 SE12      30.10R
SPOKANE        CLEAR     55  42  61 SE3       30.05S
$$

REGIONAL REPORTS...ALBERTA

CITY           SKY/WX    TMP DP  RH WIND       PRES   REMARKS
EDMONTON       PTCLDY    61  36  39 S9        29.95S
CALGARY        CLEAR     50  32  50 VRB2      30.02S
LETHBRIDGE     CLEAR     46  32  57 SW6       30.03R
MEDICINE HAT   CLEAR     46  41  81 SW3       30.04S
WATERTON GATE    N/A     50  30  46 S12         N/A
CARDSTON         N/A     48  28  46 SW6         N/A
MILK RIVER       N/A     45  36  70 S7          N/A
ONEFOUR          N/A     50  37  62 E7          N/A
$$

REGIONAL REPORTS...SASKATCHEWAN

CITY           SKY/WX    TMP DP  RH WIND       PRES   REMARKS
SWIFT CURRENT  CLEAR     50  36  57 SW13      30.03S
REGINA         PTCLDY    45  28  53 N5        30.01R
SASKATOON      CLEAR     46  41  81 NE3       30.03R
CYPRESS HILLS    N/A     52  32  46 W2          N/A
VAL MARIE        N/A     37  32  81 NE5         N/A
ROCKGLEN         N/A     50  32  50 W6          N/A
ASSINIBOIA       N/A     45  39  81 S6          N/A
$$




USA.gov is the U.S. government's official web portal to all federal, state and local government web resources and services.